This demonstration page uses our WeatherBlox Daily Observations layout. Learn more.

Left ArrowRight Arrow

39.92423, -83.80882

Hourly Observations for October 24, 2020

Temp ( °F °C ) Dew Point ( °F °C ) Humidity (%) Winds ( mph kmh ) Pressure ( in mb ) Visibility ( mi km ) Precip ( " mm )
12:56 am 00:56 Cloudy 49 9.4 49 9.4 100 100 NNW 16 26 30.08 1019 10 16.0934 0 0
1:56 am 01:56 Cloudy 48 8.9 47 8.3 96 96 NNW 13 20 30.09 1019 10 16.0934 0 0
2:56 am 02:56 Cloudy 46 7.8 44 6.7 93 93 NNW 14 22 30.12 1020 10 16.0934 0 0
3:08 am 03:08 Cloudy 46 8 43 6 87 87 NNW 14 22 30.14 1021 10 16.0934 0 0
3:34 am 03:34 Cloudy 45 7 45 7 100 100 NNW 16 26 30.14 1021 10 16.0934 0 0
3:56 am 03:56 Cloudy 45 7.2 43 6.1 93 93 NNW 15 24 30.13 1020 10 16.0934 0.001 0.001
4:07 am 04:07 Cloudy 45 7 43 6 93 93 NNW 14 22 30.15 1021 10 16.0934 0 0
4:25 am 04:25 Cloudy 45 7 43 6 93 93 NNW 12 19 30.16 1021 10 16.0934 0 0
4:53 am 04:53 Cloudy 45 7 41 5 87 87 NNW 13 20 30.17 1022 10 16.0934 0 0
4:56 am 04:56 Cloudy 44 6.7 41 5 89 89 NNW 13 20 30.15 1021 10 16.0934 0 0
5:05 am 05:05 Cloudy 43 6 41 5 93 93 NNW 12 19 30.18 1022 10 16.0934 0 0
5:56 am 05:56 Cloudy 42 5.6 41 5 96 96 NNW 7 11 30.17 1022 10 16.0934 0 0
6:30 am 06:30 Mostly Cloudy 41 5 41 5 100 100 NNW 6 9 30.2 1023 10 16.0934 0 0
6:56 am 06:56 Cloudy 42 5.6 41 5 96 96 NW 13 20 30.19 1022 10 16.0934 0 0
7:51 am 07:51 Cloudy 41 5 39 4 93 93 NNW 10 17 30.21 1023 10 16.0934 0 0
7:56 am 07:56 Cloudy 41 5 40 4.4 96 96 NNW 8 13 30.19 1022 10 16.0934 0 0
8:03 am 08:03 Cloudy 41 5 39 4 93 93 N 9 15 30.21 1023 10 16.0934 0 0
8:42 am 08:42 Partly Cloudy 41 5 39 4 93 93 N 13 20 30.21 1023 10 16.0934 0 0
8:56 am 08:56 Mostly Sunny 41 5 37 2.8 86 86 N 12 19 30.2 1023 10 16.0934 0 0
9:56 am 09:56 Sunny 43 6.1 37 2.8 80 80 N 12 19 30.22 1023 10 16.0934 0 0
10:37 am 10:37 Mostly Cloudy 45 7 37 3 76 76 NNE 8 13 30.23 1024 10 16.0934 0 0
10:56 am 10:56 Cloudy 43 6.1 37 2.8 80 80 NNE 9 15 30.23 1024 10 16.0934 0 0
11:56 am 11:56 Cloudy 44 6.7 36 2.2 73 73 NNE 12 19 30.23 1024 10 16.0934 0 0
12:56 pm 12:56 Cloudy 44 6.7 37 2.8 76 76 ENE 8 13 30.22 1023 10 16.0934 0 0
1:56 pm 13:56 Cloudy 45 7.2 38 3.3 77 77 ENE 8 13 30.19 1023 10 16.0934 0 0
2:56 pm 14:56 Mostly Cloudy 48 8.9 37 2.8 66 66 NNE 7 11 30.17 1022 10 16.0934 0 0
3:10 pm 15:10 Partly Cloudy 48 9 37 3 66 66 NNE 12 19 30.16 1021 10 16.0934 0 0
3:56 pm 15:56 Mostly Cloudy 50 10 38 3.3 63 63 ENE 13 20 30.15 1021 10 16.0934 0 0
4:56 pm 16:56 Partly Cloudy 49 9.4 37 2.8 64 64 NNE 9 15 30.14 1021 10 16.0934 0 0
5:56 pm 17:56 Mostly Sunny 47 8.3 37 2.8 69 69 undefined N/A 30.15 1021 10 16.0934 0 0
6:56 pm 18:56 Mostly Cloudy 43 6.1 37 2.8 80 80 NE 10 17 30.16 1022 10 16.0934 0 0
7:56 pm 19:56 Clear 40 4.4 37 2.8 89 89 NNE 8 13 30.18 1022 10 16.0934 0 0
8:56 pm 20:56 Clear 41 5 37 2.8 86 86 NE 7 11 30.18 1022 10 16.0934 0.01 0.254
9:56 pm 21:56 Clear 40 4.4 37 2.8 89 89 NE 9 15 30.18 1022 10 16.0934 0 0
10:56 pm 22:56 Clear 40 4.4 37 2.8 89 89 NE 9 15 30.18 1022 10 16.0934 0 0
11:56 pm 23:56 Mostly Clear 39 3.9 37 2.8 93 93 ENE 7 11 30.18 1022 10 16.0934 0 0

Powered by AerisWeather